Regional Weather Roundup
Issued by NWS San Angelo, TX

Home | Current Version | Previous Version | Text Only | Print | Product List | Glossary On
Versions: 1 2 3 4 5 6 7 8 9 10 11 12 13 14 15 16 17 18 19 20 21 22 23 24 25 26 27 28 29 30 31 32 33 34 35 36 37 38 39 40 41 42 43 44 45 46 47 48 49 50
000
ASUS44 KSJT 030458
RWRSJT
WEST CENTRAL TEXAS REGIONAL WEATHER ROUNDUP
NATIONAL WEATHER SERVICE SAN ANGELO TX
1100 PM CST MON MAR 02 2015

NOTE: "FAIR" INDICATES FEW OR NO CLOUDS BELOW 12,000 FEET WITH NO
SIGNIFICANT WEATHER AND/OR OBSTRUCTIONS TO VISIBILITY.

TXZ049-054-064>066-071>073-076>078-098-099-113-114-127-128-139-140-
154-155-168>170-030600
...LOCATIONS ACROSS WEST CENTRAL TEXAS...

CITY           SKY/WX    TMP DP  RH WIND       PRES   REMARKS
SAN ANGELO     CLOUDY    39  37  92 E7        30.10F WCI  34
ABILENE        CLOUDY    37  35  92 SE7       30.11F WCI  32
DYESS AFB      NOT AVBL
JUNCTION       CLOUDY    40  40 100 E3        30.13F FOG
SWEETWATER     NOT AVBL
BROWNWOOD      NOT AVBL
COLEMAN        NOT AVBL
SONORA         NOT AVBL
OZONA          NOT AVBL
BRADY          NOT AVBL
$$

TEXAS PANHANDLE/OKLAHOMA PANHANDLE

CITY           SKY/WX    TMP DP  RH WIND       PRES   REMARKS
AMARILLO       CLOUDY    33  32  96 S18G28    29.93F FOG     WCI  22
BORGER         MOCLDY    36  31  82 SW12G20   29.90F WCI  28
CANADIAN       NOT AVBL
DALHART        CLOUDY    36  33  89 S20       29.86S WCI  25
DUMAS          NOT AVBL
GUYMON         NOT AVBL
HEREFORD       NOT AVBL
PAMPA          NOT AVBL
PERRYTON       NOT AVBL
$$

SOUTHERN PANHANDLE/SOUTH PLAINS/ROLLING PLAINS

CITY           SKY/WX    TMP DP  RH WIND       PRES   REMARKS
LUBBOCK        FOG       34  34 100 S9        30.01F VSB 1/2 WCI  27
SNYDER         NOT AVBL
CHILDRESS      CLOUDY    38  34  85 S15       30.05F WCI  29
SEMINOLE       NOT AVBL
$$

PERMIAN BASIN

CITY           SKY/WX    TMP DP  RH WIND       PRES   REMARKS
MIDLAND        FOG       38  37  97 SE6       30.08R VSB<1/4 WCI  33
ODESSA         FOG       38  36  92 SE8       30.07F VSB 1/2 WCI  32
WINK           CLOUDY    41  35  79 SE7       30.06S WCI  36
$$

FAR WEST/SOUTHWEST MOUNTAINS/TRANS PECOS

CITY           SKY/WX    TMP DP  RH WIND       PRES   REMARKS
ALPINE         NOT AVBL
DRYDEN           N/A     47  40  76 CALM      30.06F
EL PASO        MOCLDY    61  44  53 SW9       29.97S
FORT STOCKTON  FAIR      38  38 100 CALM      30.07S
GUADALUPE PASS NOT AVBL
MARFA          NOT AVBL
PECOS          NOT AVBL
$$

DALLAS/FORT WORTH METROPLEX

CITY           SKY/WX    TMP DP  RH WIND       PRES   REMARKS
DFW AIRPORT    DRZL/FOG  40  40 100 SW5       30.17F VSB<1/4 WCI  37
FTW MEACHAM    FOG       40  39  97 CALM      30.17F VSB 1/4
DAL-EXECUTIVE  FOG       41  41 100 CALM      30.16S VSB 1/4
GRAND PRAIRIE  NOT AVBL
ADDISON        NOT AVBL
MESQUITE       NOT AVBL
LANCASTER      NOT AVBL
$$

NORTH CENTRAL TEXAS

CITY           SKY/WX    TMP DP  RH WIND       PRES   REMARKS
SHRMAN/DENISON NOT AVBL
GAINESVILLE    NOT AVBL
BRIDGEPORT     NOT AVBL
DENTON         FOG       39  39 100 SW3       30.17S VSB 1/4
WAXAHACHIE     NOT AVBL
GRANBURY       NOT AVBL
$$

WESTERN NORTH TEXAS

CITY           SKY/WX    TMP DP  RH WIND       PRES   REMARKS
WICHITA FALLS  DRIZZLE   37  33  85 S7        30.13F FOG     WCI  32
VERNON         NOT AVBL
BRECKENRIDGE   NOT AVBL
COMANCHE       NOT AVBL
$$

CENTRAL AND SOUTH CENTRAL TEXAS

CITY           SKY/WX    TMP DP  RH WIND       PRES   REMARKS
AUSTIN/BERGSTM DRZL/FOG  42  42 100 N6        30.18F VSB 3/4 WCI  38
WACO           FOG       40  39  97 CALM      30.18F VSB 1/4
HILLSBORO      NOT AVBL
TEMPLE         NOT AVBL
KILLEEN-GRAY   NOT AVBL
FORT HOOD      FOG       39  39 100 E2        30.16F VSB 1/2
GEORGETOWN     NOT AVBL
LAGO VISTA     NOT AVBL
SAN MARCOS     NOT AVBL
NEW BRAUNFELS  CLOUDY    44  44 100 NE7       30.16S FOG
RANDOLPH AFB   FOG       45  43  93 NE6       30.16S VSB 1
SAN ANTONIO    DRZL/FOG  46  44  93 NE5       30.16S VSB 1
STINSON        CLOUDY    45  44  97 NE7       30.15F FOG
PLEASANTON     NOT AVBL
LA GRANGE      NOT AVBL
GIDDINGS       NOT AVBL
$$

EAST TEXAS

CITY           SKY/WX    TMP DP  RH WIND       PRES   REMARKS
PARIS          NOT AVBL
CLARKSVILLE    NOT AVBL
TYLER          CLOUDY    43  41  93 E7        30.17F FOG     WCI  39
LONGVIEW       CLOUDY    42  41  96 E3        30.20S FOG
PALESTINE      NOT AVBL
NACOGDOCHES    NOT AVBL
$$

TEXAS HILL COUNTRY AND EDWARDS PLATEAU

CITY           SKY/WX    TMP DP  RH WIND       PRES   REMARKS
LLANO          NOT AVBL
HORSESHOE BAY  NOT AVBL
KERRVILLE      NOT AVBL
FREDERICKSBRG  NOT AVBL
ROCKSPRINGS    NOT AVBL
HONDO          LGT RAIN  48  46  93 SE7       30.17S FOG
UVALDE         NOT AVBL
DEL RIO        CLOUDY    49  46  90 E8        30.11F
$$

SOUTHEAST TEXAS

CITY           SKY/WX    TMP DP  RH WIND       PRES   REMARKS
COLLEGE STN    FOG       45  45 100 N3        30.17F VSB 3/4
CALDWELL       NOT AVBL
CROCKETT       NOT AVBL
BRENHAM        NOT AVBL
HUNTSVILLE     FOG       49  49 100 NE3       30.16F VSB 1
CONROE         FOG       51  50  96 NE3       30.17S VSB 3/4
HOUSTON BUSH   FOG       56  55  97 E5        30.16F VSB 1/4
HOUSTON HOBBY  FOG       58  58 100 CALM      30.15F VSB 1/2
PERLAND        FOG       59  59 100 E10       30.17F VSB 1/2
WHARTON        NOT AVBL
$$

THE UPPER TEXAS COAST

CITY           SKY/WX    TMP DP  RH WIND       PRES   REMARKS
ORANGE         NOT AVBL
PORT ARTHUR    FOG       58  57  97 E9        30.17F VSB 1/2
GALVESTON      FOG       57  57 100 E12       30.17S VSB 1/2
ANGLETON       FOG       58  58 100 E6        30.15F VSB 3/4
BAY CITY       NOT AVBL
$$

TEXAS COASTAL BEND, RIO GRANDE PLAINS DEEP SOUTH TEXAS

CITY           SKY/WX    TMP DP  RH WIND       PRES   REMARKS
VICTORIA       FOG       51  51 100 N6        30.16S VSB 3/4
BEEVILLE       NOT AVBL
ROCKPORT       FOG       54  53  97 N6        30.14S VSB 1/2
PORT ARANSAS   NOT AVBL
PORT LAVACA    NOT AVBL
CORPUS CHRISTI DRZL/FOG  53  52  96 N5        30.14S VSB 1/4
KINGSVILLE NAS DRZL/FOG  52  52 100 N6        30.15S VSB 1/4
COTULLA        CLOUDY    48  46  93 E6        30.16S FOG
LAREDO         LGT RAIN  46  46 100 CALM      30.17F FOG
BROWNSVILLE    FOG       57  56  96 NW6       30.13F VSB 3/4
PORT ISABEL    FOG       56  55  97 NW8       30.12F VSB 1
HEBBRONVILLE   NOT AVBL
MCALLEN        NOT AVBL
WESLACO        NOT AVBL
FALFURRIAS     NOT AVBL
EDINBURG       NOT AVBL
$$


USA.gov is the U.S. government's official web portal to all federal, state and local government web resources and services.